STARLINK-2036 (47652 NORAD) Tracking and Keplerian Element Data
This shows tracking and keplerian element data for the satellite.
Feedback or suggestion? Click here.
Element | Value |
Catalog | 47652 |
Name | STARLINK-2036 |
Epoch Orbit | 175 |
Epoch Day | 101.91668981 |
Epoch Year | 2021 |
RAAN | 199.7127 |
Inclination | 53.0451 |
Eccentricity | 0.0001004 |
Argument of Perigee | 61.1052 |
Mean Anonmoly | 256.9702 |
Mean Motion | 15.0641578 |
Decay Rate | -0.00037589 |
L1 | 1 47652U 21012AJ 21101.91668981 -.00037589 00000-0 -25169-2 0 9992 |
L2 | 2 47652 53.0451 199.7127 0001004 61.1052 256.9702 15.06415780 1751 |
Live tracking and technical data element details for STARLINK-2036 (NORAD 47652). STARLINK-2036 can be tracked NOW for your location showing map with azimuth and elevation plus other details from your city location.
Track the satellite on the map from your city or location and see movement details for azimuth, elevation, latitude, longitude, range, height, and movement on the map or in text.
IsCatalogInMostPopularTable: catalog: 47652, numindb: 17
Update: records affected: 1
GetName: 47652 STARLINK-2036
Hit Count: updated at: Tue, 13 Apr 2021 05:09:50 GMT